When you browse on this site, cookies collect data to enhance your experience and personalize the content and advertising you see.
Visit our Privacy Policy to learn more. By continuing to use the site, you agree to this use of cookies and data.
  • în România
  • Lista ţărilor
  • Pe 7 zile
  • Temperatura apei
  • Meteo pe hartă
  • Widget-uri
  • user-avatar
    Intrare

    Meteo pe oră la Brčko

    Astăzi, 23 Ianuarie, Joi

    Timp Temperatura Precipitaţii Vânt Presiune Umiditate
    00:00 -1°C° 0 mm 2 m/s 766 mmHg 74%
    01:00 +1°C° 0 mm 2 m/s 766 mmHg 73%
    02:00 -1°C° 0 mm 2 m/s 766 mmHg 74%
    03:00 -1°C° 0 mm 2 m/s 766 mmHg 75%
    04:00 -1°C° 0 mm 2 m/s 766 mmHg 77%
    05:00 -1°C° 0 mm 2 m/s 767 mmHg 78%
    06:00 0°C° 0 mm 1 m/s 767 mmHg 80%
    07:00 0°C° 0 mm 1 m/s 768 mmHg 82%
    08:00 +1°C° 0 mm 1 m/s 768 mmHg 77%
    09:00 +1°C° 0 mm 0 m/s 768 mmHg 72%
    10:00 +3°C° 0 mm 0 m/s 768 mmHg 67%
    11:00 +3°C° 0 mm 0 m/s 768 mmHg 64%
    12:00 +4°C° 0 mm 0 m/s 768 mmHg 62%
    13:00 +5°C° 0 mm 0 m/s 767 mmHg 59%
    14:00 +5°C° 0 mm 0 m/s 767 mmHg 62%
    15:00 +5°C° 0 mm 1 m/s 767 mmHg 65%
    16:00 +4°C° 0 mm 1 m/s 766 mmHg 68%
    17:00 +3°C° 0 mm 1 m/s 766 mmHg 72%
    18:00 +3°C° 0 mm 1 m/s 766 mmHg 76%
    19:00 +2°C° 0 mm 1 m/s 766 mmHg 80%
    20:00 -1°C° 0 mm 2 m/s 766 mmHg 81%
    21:00 -1°C° 0 mm 2 m/s 765 mmHg 82%
    22:00 -1°C° 0 mm 2 m/s 765 mmHg 83%
    23:00 -1°C° 0 mm 2 m/s 765 mmHg 83%

    Mâine, 24 Ianuarie, Vineri

    Timp Temperatura Precipitaţii Vânt Presiune Umiditate
    00:00 -1°C° 0 mm 2 m/s 765 mmHg 83%
    01:00 -2°C° 0 mm 2 m/s 764 mmHg 83%
    02:00 0°C° 0 mm 1 m/s 764 mmHg 83%
    03:00 0°C° 0 mm 1 m/s 763 mmHg 82%
    04:00 0°C° 0 mm 1 m/s 763 mmHg 82%
    05:00 0°C° 0 mm 1 m/s 763 mmHg 82%
    06:00 0°C° 0 mm 1 m/s 763 mmHg 81%
    07:00 0°C° 0 mm 1 m/s 763 mmHg 80%
    08:00 +1°C° 0 mm 1 m/s 763 mmHg 73%
    09:00 +2°C° 0 mm 0 m/s 763 mmHg 66%
    10:00 +3°C° 0 mm 0 m/s 762 mmHg 59%
    11:00 +4°C° 0 mm 0 m/s 762 mmHg 55%
    12:00 +6°C° 0 mm 0 m/s 762 mmHg 51%
    13:00 +7°C° 0 mm 0 m/s 761 mmHg 47%
    14:00 +6°C° 0 mm 0 m/s 761 mmHg 52%
    15:00 +5°C° 0 mm 0 m/s 761 mmHg 56%
    16:00 +4°C° 0 mm 0 m/s 761 mmHg 60%
    17:00 +5°C° 0 mm 1 m/s 761 mmHg 62%
    18:00 +4°C° 0 mm 1 m/s 761 mmHg 64%
    19:00 +3°C° 0 mm 1 m/s 761 mmHg 65%
    20:00 +3°C° 0 mm 1 m/s 761 mmHg 66%
    21:00 +3°C° 0 mm 1 m/s 761 mmHg 67%
    22:00 +3°C° 0 mm 1 m/s 761 mmHg 67%
    23:00 +3°C° 0 mm 1 m/s 760 mmHg 69%

    Poimâine, 25 Ianuarie, Sâmbătă

    Timp Temperatura Precipitaţii Vânt Presiune Umiditate
    00:00 +3°C° 0 mm 1 m/s 760 mmHg 70%
    01:00 +3°C° 0 mm 1 m/s 760 mmHg 71%
    02:00 +4°C° 0 mm 1 m/s 760 mmHg 73%
    03:00 +4°C° 0 mm 1 m/s 759 mmHg 75%
    04:00 +4°C° 0 mm 1 m/s 759 mmHg 77%
    05:00 +4°C° 0 mm 1 m/s 759 mmHg 78%
    06:00 +4°C° 0 mm 1 m/s 759 mmHg 79%
    07:00 +4°C° 0 mm 1 m/s 759 mmHg 81%
    08:00 +6°C° 0 mm 1 m/s 759 mmHg 77%
    09:00 +6°C° 0 mm 2 m/s 759 mmHg 73%
    10:00 +8°C° 0 mm 2 m/s 760 mmHg 70%
    11:00 +9°C° 0 mm 2 m/s 759 mmHg 66%
    12:00 +10°C° 0 mm 2 m/s 759 mmHg 62%
    13:00 +13°C° 0 mm 2 m/s 758 mmHg 58%
    14:00 +12°C° 0 mm 2 m/s 758 mmHg 62%
    15:00 +10°C° 0 mm 2 m/s 758 mmHg 67%
    16:00 +11°C° 0 mm 1 m/s 758 mmHg 71%
    17:00 +10°C° 0 mm 1 m/s 758 mmHg 74%
    18:00 +9°C° 0 mm 1 m/s 758 mmHg 76%
    19:00 +9°C° 0 mm 1 m/s 758 mmHg 79%
    20:00 +8°C° 0 mm 1 m/s 758 mmHg 80%
    21:00 +8°C° 0 mm 1 m/s 758 mmHg 81%
    22:00 +8°C° 0 mm 1 m/s 758 mmHg 83%
    23:00 +7°C° 0 mm 1 m/s 758 mmHg 83%

    26 Ianuarie, Duminică

    Timp Temperatura Precipitaţii Vânt Presiune Umiditate
    00:00 +7°C° 0 mm 1 m/s 758 mmHg 84%
    01:00 +7°C° 0 mm 1 m/s 758 mmHg 85%
    02:00 +7°C° 0 mm 1 m/s 758 mmHg 85%
    03:00 +7°C° 0 mm 1 m/s 758 mmHg 85%
    04:00 +7°C° 0 mm 1 m/s 758 mmHg 85%
    05:00 +6°C° 0 mm 1 m/s 758 mmHg 85%
    06:00 +6°C° 0 mm 1 m/s 758 mmHg 85%
    07:00 +6°C° 0 mm 1 m/s 758 mmHg 85%
    08:00 +7°C° 0 mm 1 m/s 759 mmHg 80%
    09:00 +9°C° 0 mm 1 m/s 759 mmHg 75%
    10:00 +10°C° 0 mm 1 m/s 759 mmHg 69%
    11:00 +11°C° 0 mm 1 m/s 758 mmHg 66%
    12:00 +12°C° 0 mm 1 m/s 758 mmHg 62%
    13:00 +13°C° 0 mm 1 m/s 758 mmHg 58%
    14:00 +13°C° 0 mm 1 m/s 757 mmHg 62%
    15:00 +12°C° 0 mm 1 m/s 757 mmHg 65%
    16:00 +11°C° 0 mm 1 m/s 757 mmHg 69%
    17:00 +11°C° 0 mm 1 m/s 757 mmHg 72%
    18:00 +10°C° 0 mm 1 m/s 757 mmHg 75%
    19:00 +9°C° 0 mm 1 m/s 757 mmHg 78%
    20:00 +9°C° 0 mm 1 m/s 757 mmHg 79%
    21:00 +9°C° 0 mm 1 m/s 757 mmHg 80%
    22:00 +9°C° 0 mm 1 m/s 757 mmHg 81%
    23:00 +8°C° 0 mm 1 m/s 757 mmHg 81%

    27 Ianuarie, Luni

    Timp Temperatura Precipitaţii Vânt Presiune Umiditate
    00:00 +7°C° 0 mm 0 m/s 757 mmHg 82%
    01:00 +7°C° 0 mm 0 m/s 757 mmHg 83%
    02:00 +8°C° 0 mm 1 m/s 757 mmHg 84%
    03:00 +8°C° 0 mm 1 m/s 757 mmHg 85%
    04:00 +7°C° 0 mm 1 m/s 757 mmHg 87%
    05:00 +7°C° 0 mm 1 m/s 757 mmHg 88%
    06:00 +7°C° 0 mm 1 m/s 757 mmHg 90%
    07:00 +7°C° 0 mm 1 m/s 757 mmHg 92%
    08:00 +7°C° 0 mm 1 m/s 758 mmHg 89%
    09:00 +6°C° 0 mm 2 m/s 758 mmHg 87%
    10:00 +7°C° 0 mm 2 m/s 759 mmHg 84%
    11:00 +7°C° 0 mm 2 m/s 758 mmHg 81%
    12:00 +8°C° 0 mm 2 m/s 758 mmHg 79%
    13:00 +8°C° 0 mm 2 m/s 758 mmHg 76%
    14:00 +9°C° 0 mm 1 m/s 759 mmHg 76%
    15:00 +9°C° 0 mm 1 m/s 759 mmHg 76%
    16:00 +9°C° 0 mm 1 m/s 759 mmHg 76%
    17:00 +9°C° 0 mm 1 m/s 759 mmHg 79%
    18:00 +8°C° 0 mm 1 m/s 760 mmHg 82%
    19:00 +7°C° 0 mm 1 m/s 760 mmHg 85%
    20:00 +7°C° 0 mm 1 m/s 760 mmHg 86%
    21:00 +5°C° 0 mm 0 m/s 760 mmHg 87%
    22:00 +5°C° 0 mm 0 m/s 760 mmHg 88%
    23:00 +5°C° 0 mm 0 m/s 760 mmHg 88%

    28 Ianuarie, Marţi

    Timp Temperatura Precipitaţii Vânt Presiune Umiditate
    00:00 +4°C° 0 mm 0 m/s 760 mmHg 89%
    01:00 +4°C° 0 mm 0 m/s 760 mmHg 90%
    02:00 +4°C° 0 mm 0 m/s 760 mmHg 90%
    03:00 +4°C° 0 mm 0 m/s 760 mmHg 90%
    04:00 +3°C° 0 mm 0 m/s 760 mmHg 91%
    05:00 +4°C° 0 mm 1 m/s 760 mmHg 91%
    06:00 +4°C° 0 mm 1 m/s 760 mmHg 91%
    07:00 +4°C° 0 mm 1 m/s 760 mmHg 91%
    08:00 +6°C° 0 mm 1 m/s 759 mmHg 86%
    09:00 +6°C° 0 mm 2 m/s 759 mmHg 81%
    10:00 +8°C° 0 mm 2 m/s 759 mmHg 76%
    11:00 +9°C° 0 mm 2 m/s 758 mmHg 71%
    12:00 +10°C° 0 mm 3 m/s 758 mmHg 66%
    13:00 +11°C° 0 mm 3 m/s 757 mmHg 61%
    14:00 +11°C° 0 mm 3 m/s 757 mmHg 63%
    15:00 +12°C° 0 mm 2 m/s 756 mmHg 65%
    16:00 +10°C° 0 mm 2 m/s 756 mmHg 67%
    17:00 +9°C° 0 mm 2 m/s 756 mmHg 72%
    18:00 +8°C° 0 mm 2 m/s 756 mmHg 77%
    19:00 +7°C° 0 mm 2 m/s 756 mmHg 82%
    20:00 +7°C° 0 mm 2 m/s 756 mmHg 82%
    21:00 +7°C° 0 mm 1 m/s 756 mmHg 83%
    22:00 +7°C° 0 mm 1 m/s 756 mmHg 84%
    23:00 +7°C° 0 mm 1 m/s 756 mmHg 84%
    Arată mai mult